Other Surface Observations
Issued by NWS Tucson, AZ

Home | Current Version | Previous Version | Text Only | Print | Product List | Glossary On
Versions: 1 2 3 4 5 6 7 8 9 10 11 12 13 14 15 16 17 18 19 20 21 22 23 24 25 26 27 28 29 30 31 32 33 34 35 36 37 38 39 40 41 42 43 44 45 46 47 48 49 50
000
SXUS55 KTWC 032316
OSOTWC

WEATHER ROUNDUP FOR SOUTHEAST ARIZONA
NATIONAL WEATHER SERVICE TUCSON AZ
415 PM MST MON AUG 03 2015

AZZ504>506-514-040015-
LOCATION       SKY/WX    TMP DP  RH WIND       PRES   REMARKS
TUCSON         MOSUNNY  103  46  14 N6        29.90F
DAVIS-MONTHAN  SUNNY    101  48  16 W2        29.88F
CHILDRENS PARK N/A      102  46  15 W6                PIMA CO DEQ
ALVERNON/22ND  N/A      N/A N/A N/A N/A               PIMA CO DEQ
CHERRY/GLENN   N/A      N/A N/A N/A N/A               PIMA CO DEQ
TANGERINE      N/A      103 N/A N/A NW5               PIMA CO DEQ
CONTL RANCH    N/A      104  45  14 W7                PIMA CO DEQ
GRANT/1ST      N/A      102  44  14 W4                PIMA CO DEQ
CRAYCROFT/22ND N/A      N/A N/A N/A N/A               PIMA CO DEQ
GOLFLINKS/KOLB N/A      N/A N/A N/A N/A               PIMA CO DEQ
AJO/12TH       N/A      101  46  16 NW3               PIMA CO DEQ
SAGUARO EAST   N/A      N/A N/A N/A N/A               PIMA CO DEQ
FAIRGROUNDS    N/A      101 N/A N/A NW8               PIMA CO DEQ
SAGUARO        N/A      104  49  16 W12G19            *SABINO CYN
SAN CARLOS     N/A      103  46  15 W10G17            *SAN CARLOS
GREEN VALLEY   N/A      100  47  17 N3                PIMA CO DEQ
HORSE CAMP CYN N/A       96  43  16 W10G25            *ARAVAIPA CYN
RINCON MTNS    N/A       70  49  47 N3                *NR MANNING CAMP
$$

AZZ509>511-040015-
LOCATION       SKY/WX    TMP DP  RH WIND       PRES   REMARKS
SAFFORD        PTSUNNY  103  42  12 W14       29.88F
STRAY HORSE    N/A       79  43  28 W9G19             *
TRAIL CABIN    N/A       86  44  23 NW7G15            *N OF GRANVILLE
BLACK HILLS    N/A      101  41  13 NW8G21            *N OF FT THOMAS
DRY LAKE       N/A       81  49  33 NW4G10            *NATANES MTNS
NOON CREEK     N/A       91  49  24 SW4G16            *PINALENO MTNS
COLUMBINE      N/A       73  41  32 W3G12             *PINALENO MTNS
GUTHRIE        N/A       88  47  24 W8G20             *SW OF GUTHRIE
$$

AZZ502-503-513-040015-
LOCATION       SKY/WX    TMP DP  RH WIND       PRES   REMARKS
NOGALES        PTSUNNY   91  57  31 SE7       30.01S
SELLS          N/A      105  50  16 W8G15             *
SASABE         N/A       98  53  22 SW5G12            *ALTAR VLY
HOPKINS        N/A       75  48  39 NW5G10            *SANTA RITA MTNS
CARR CYN       N/A       90  55  31 NE3               *W OF HEREFORD
$$

AZZ507-508-512-040015-
LOCATION       SKY/WX    TMP DP  RH WIND       PRES   REMARKS
SIERRA VISTA   SUNNY     89  50  26 VRB2      30.07F
DOUGLAS        MOSUNNY   92  49  22 NW6       30.01F
EMPIRE MTNS    N/A       93  48  22 NW6G17            *LAS CIENEGAS NCA
MULESHOE RANCH N/A       96  44  17 NW10G20           *PRESERVE
HEADQUARTERS   N/A       90  45  21 W4G11             *CHIRICAHUA MTNS
$$

.............................NOTES.............................
THIS IS AN AUTOMATED COLLECTIVE WITH MINIMAL QUALITY CONTROL.
PIMA CO DEQ SITES HAVE NONSTANDARD WIND SENSOR HEIGHTS.
PIMA CO DEQ SITES DO NOT REPORT WIND GUSTS.
* INDICATES WIND SENSORS LOCATED AT 20 FEET INSTEAD OF 33 FEET.
..............................KEY..............................
SKY/WX - SKY CONDITION/WEATHER
TMP    - TEMPERATURE IN FAHRENHEIT
DP     - DEWPOINT IN FAHRENHEIT
RH     - RELATIVE HUMIDITY IN PERCENT
WIND   - DIRECTION AND SPEED IN MILES PER HOUR (MPH)
VRB    - VARIABLE WIND DIRECTION
PRES   - MEAN SEA LEVEL PRESSURE IN INCHES OF MERCURY
         F - FALLING PRESSURE   R - RISING PRESSURE
         S - STEADY PRESSURE
VSB    - VISIBILITY IN MILES
HX     - HEAT INDEX IN FAHRENHEIT
WCI    - WIND CHILL INDEX IN FAHRENHEIT
N/A    - NOT AVAILABLE
AFB    - AIR FORCE BASE
         DAVIS-MONTHAN IS DAVIS-MONTHAN AIR FORCE BASE
CYN    - CANYON
MTNS   - MOUNTAINS
NCA    - NATIONAL CONSERVATION AREA
NR     - NEAR
VLY    - VALLEY
CONTL  - CONTINENTAL
PIMA CO DEQ - PIMA COUNTY DEPT OF ENVIRONMENTAL QUALITY



USA.gov is the U.S. government's official web portal to all federal, state and local government web resources and services.